When you browse on this site, cookies collect data to enhance your experience and personalize the content and advertising you see.
Visit our Privacy Policy to learn more. By continuing to use the site, you agree to this use of cookies and data.
  • en Suisse
  • Liste des pays
  • À 7 jours
  • Température de l'eau
  • Carte météo
  • Widgets météo
  • user-avatar
    Se connecter

    Météo par heure à Yulara

    Ce jour, 30 Mai, Samedi

    Heure Température Précipitation Vent Pression Humidité
    00:00 +18°C° 0 mm 4 m/s 720 mmHg 28%
    01:00 +18°C° 0 mm 3 m/s 720 mmHg 30%
    02:00 +18°C° 0 mm 2 m/s 719 mmHg 32%
    03:00 +17°C° 0 mm 2 m/s 719 mmHg 34%
    04:00 +17°C° 0 mm 2 m/s 719 mmHg 35%
    05:00 +18°C° 0 mm 2 m/s 719 mmHg 36%
    06:00 +18°C° 0 mm 2 m/s 720 mmHg 36%
    07:00 +19°C° 0 mm 3 m/s 720 mmHg 36%
    08:00 +20°C° 0 mm 3 m/s 720 mmHg 35%
    09:00 +21°C° 0 mm 4 m/s 720 mmHg 30%
    10:00 +23°C° 0 mm 6 m/s 720 mmHg 29%
    11:00 +24°C° 0 mm 7 m/s 720 mmHg 28%
    12:00 +27°C° 0 mm 8 m/s 720 mmHg 27%
    13:00 +27°C° 0 mm 8 m/s 719 mmHg 29%
    14:00 +28°C° 0 mm 8 m/s 719 mmHg 31%
    15:00 +28°C° 0 mm 7 m/s 718 mmHg 34%
    16:00 +26°C° 0 mm 6 m/s 718 mmHg 38%
    17:00 +25°C° 0 mm 5 m/s 719 mmHg 42%
    18:00 +24°C° 0 mm 3 m/s 719 mmHg 46%
    19:00 +22°C° 0 mm 3 m/s 719 mmHg 50%
    20:00 +21°C° 0 mm 3 m/s 719 mmHg 54%
    21:00 +20°C° 0 mm 4 m/s 720 mmHg 57%
    22:00 +19°C° 0 mm 4 m/s 720 mmHg 58%
    23:00 +18°C° 0 mm 4 m/s 720 mmHg 58%

    Demain, 31 Mai, Dimanche

    Heure Température Précipitation Vent Pression Humidité
    00:00 +17°C° 0 mm 4 m/s 720 mmHg 59%
    01:00 +15°C° 0 mm 4 m/s 720 mmHg 59%
    02:00 +14°C° 0 mm 4 m/s 720 mmHg 60%
    03:00 +13°C° 0 mm 3 m/s 719 mmHg 60%
    04:00 +13°C° 0 mm 3 m/s 720 mmHg 63%
    05:00 +12°C° 0 mm 3 m/s 720 mmHg 66%
    06:00 +12°C° 0 mm 3 m/s 720 mmHg 69%
    07:00 +14°C° 0 mm 2 m/s 721 mmHg 64%
    08:00 +16°C° 0 mm 2 m/s 721 mmHg 59%
    09:00 +17°C° 0 mm 2 m/s 722 mmHg 53%
    10:00 +19°C° 0 mm 2 m/s 722 mmHg 48%
    11:00 +22°C° 0 mm 1 m/s 721 mmHg 43%
    12:00 +23°C° 0 mm 1 m/s 721 mmHg 39%
    13:00 +24°C° 0 mm 2 m/s 721 mmHg 34%
    14:00 +25°C° 0 mm 4 m/s 720 mmHg 29%
    15:00 +26°C° 0 mm 5 m/s 720 mmHg 24%
    16:00 +23°C° 0 mm 5 m/s 720 mmHg 26%
    17:00 +21°C° 0 mm 5 m/s 720 mmHg 27%
    18:00 +19°C° 0 mm 4 m/s 720 mmHg 28%
    19:00 +17°C° 0 mm 5 m/s 720 mmHg 31%
    20:00 +15°C° 0 mm 5 m/s 721 mmHg 33%
    21:00 +14°C° 0 mm 6 m/s 721 mmHg 35%
    22:00 +13°C° 0 mm 6 m/s 721 mmHg 35%
    23:00 +11°C° 0 mm 6 m/s 722 mmHg 34%

    Après-demain, 1 Juin, Lundi

    Heure Température Précipitation Vent Pression Humidité
    00:00 +10°C° 0 mm 6 m/s 722 mmHg 34%
    01:00 +9°C° 0 mm 5 m/s 722 mmHg 38%
    02:00 +9°C° 0 mm 5 m/s 722 mmHg 41%
    03:00 +8°C° 0 mm 4 m/s 721 mmHg 45%
    04:00 +7°C° 0 mm 4 m/s 722 mmHg 51%
    05:00 +7°C° 0 mm 3 m/s 722 mmHg 56%
    06:00 +7°C° 0 mm 2 m/s 722 mmHg 62%
    07:00 +9°C° 0 mm 3 m/s 723 mmHg 57%
    08:00 +11°C° 0 mm 3 m/s 723 mmHg 52%
    09:00 +13°C° 0 mm 4 m/s 724 mmHg 47%
    10:00 +15°C° 0 mm 4 m/s 724 mmHg 43%
    11:00 +18°C° 0 mm 4 m/s 724 mmHg 40%
    12:00 +20°C° 0 mm 4 m/s 723 mmHg 36%
    13:00 +21°C° 0 mm 4 m/s 723 mmHg 33%
    14:00 +21°C° 0 mm 4 m/s 722 mmHg 31%
    15:00 +22°C° 0 mm 4 m/s 721 mmHg 28%
    16:00 +20°C° 0 mm 4 m/s 722 mmHg 32%
    17:00 +19°C° 0 mm 4 m/s 722 mmHg 36%
    18:00 +17°C° 0 mm 4 m/s 722 mmHg 40%
    19:00 +15°C° 0 mm 4 m/s 723 mmHg 45%
    20:00 +14°C° 0 mm 5 m/s 723 mmHg 50%
    21:00 +13°C° 0 mm 5 m/s 723 mmHg 55%
    22:00 +12°C° 0 mm 5 m/s 724 mmHg 63%
    23:00 +10°C° 0 mm 5 m/s 724 mmHg 70%

    2 Juin, Mardi

    Heure Température Précipitation Vent Pression Humidité
    00:00 +9°C° 0 mm 5 m/s 724 mmHg 78%
    01:00 +8°C° 0 mm 5 m/s 724 mmHg 81%
    02:00 +7°C° 0 mm 4 m/s 724 mmHg 83%
    03:00 +7°C° 0 mm 4 m/s 724 mmHg 86%
    04:00 +6°C° 0 mm 4 m/s 724 mmHg 87%
    05:00 +6°C° 0 mm 4 m/s 724 mmHg 88%
    06:00 +6°C° 0 mm 4 m/s 725 mmHg 89%
    07:00 +7°C° 0 mm 5 m/s 725 mmHg 80%
    08:00 +9°C° 0 mm 5 m/s 725 mmHg 71%
    09:00 +10°C° 0 mm 6 m/s 726 mmHg 62%
    10:00 +12°C° 0 mm 7 m/s 726 mmHg 54%
    11:00 +15°C° 0 mm 7 m/s 725 mmHg 46%
    12:00 +17°C° 0 mm 7 m/s 725 mmHg 39%
    13:00 +18°C° 0 mm 7 m/s 725 mmHg 36%
    14:00 +20°C° 0 mm 6 m/s 724 mmHg 33%
    15:00 +20°C° 0 mm 6 m/s 724 mmHg 30%
    16:00 +17°C° 0 mm 5 m/s 724 mmHg 35%
    17:00 +15°C° 0 mm 4 m/s 724 mmHg 40%
    18:00 +13°C° 0 mm 3 m/s 724 mmHg 44%
    19:00 +13°C° 0 mm 4 m/s 724 mmHg 47%
    20:00 +12°C° 0 mm 4 m/s 725 mmHg 49%
    21:00 +10°C° 0 mm 5 m/s 725 mmHg 51%
    22:00 +9°C° 0 mm 5 m/s 725 mmHg 53%
    23:00 +9°C° 0 mm 5 m/s 725 mmHg 55%

    3 Juin, Mercredi

    Heure Température Précipitation Vent Pression Humidité
    00:00 +8°C° 0 mm 5 m/s 725 mmHg 58%
    01:00 +8°C° 0 mm 4 m/s 725 mmHg 59%
    02:00 +7°C° 0 mm 4 m/s 725 mmHg 61%
    03:00 +6°C° 0 mm 4 m/s 725 mmHg 63%
    04:00 +6°C° 0 mm 4 m/s 725 mmHg 64%
    05:00 +5°C° 0 mm 4 m/s 725 mmHg 66%
    06:00 +5°C° 0 mm 4 m/s 725 mmHg 68%
    07:00 +6°C° 0 mm 5 m/s 726 mmHg 62%
    08:00 +8°C° 0 mm 6 m/s 726 mmHg 56%
    09:00 +9°C° 0 mm 6 m/s 727 mmHg 50%
    10:00 +11°C° 0 mm 7 m/s 727 mmHg 45%
    11:00 +14°C° 0 mm 7 m/s 726 mmHg 40%
    12:00 +16°C° 0 mm 7 m/s 726 mmHg 35%
    13:00 +16°C° 0 mm 7 m/s 725 mmHg 33%
    14:00 +17°C° 0 mm 7 m/s 724 mmHg 31%
    15:00 +19°C° 0 mm 6 m/s 724 mmHg 29%
    16:00 +16°C° 0 mm 6 m/s 724 mmHg 33%
    17:00 +14°C° 0 mm 5 m/s 724 mmHg 37%
    18:00 +13°C° 0 mm 4 m/s 724 mmHg 42%
    19:00 +12°C° 0 mm 4 m/s 724 mmHg 45%
    20:00 +11°C° 0 mm 4 m/s 725 mmHg 48%
    21:00 +10°C° 0 mm 4 m/s 725 mmHg 51%
    22:00 +8°C° 0 mm 4 m/s 725 mmHg 54%
    23:00 +7°C° 0 mm 4 m/s 725 mmHg 57%

    4 Juin, Jeudi

    Heure Température Précipitation Vent Pression Humidité
    00:00 +7°C° 0 mm 4 m/s 725 mmHg 60%
    01:00 +6°C° 0 mm 4 m/s 725 mmHg 63%
    02:00 +5°C° 0 mm 4 m/s 725 mmHg 66%
    03:00 +5°C° 0 mm 4 m/s 724 mmHg 69%
    04:00 +4°C° 0 mm 4 m/s 725 mmHg 71%
    05:00 +4°C° 0 mm 4 m/s 725 mmHg 74%
    06:00 +4°C° 0 mm 4 m/s 725 mmHg 76%
    07:00 +5°C° 0 mm 5 m/s 725 mmHg 69%
    08:00 +7°C° 0 mm 5 m/s 726 mmHg 62%
    09:00 +9°C° 0 mm 6 m/s 726 mmHg 54%
    10:00 +11°C° 0 mm 6 m/s 726 mmHg 48%
    11:00 +14°C° 0 mm 6 m/s 725 mmHg 41%
    12:00 +16°C° 0 mm 6 m/s 725 mmHg 34%
    13:00 +17°C° 0 mm 5 m/s 724 mmHg 31%
    14:00 +19°C° 0 mm 5 m/s 724 mmHg 28%
    15:00 +20°C° 0 mm 5 m/s 723 mmHg 26%
    16:00 +17°C° 0 mm 5 m/s 723 mmHg 29%
    17:00 +15°C° 0 mm 4 m/s 723 mmHg 33%
    18:00 +13°C° 0 mm 4 m/s 723 mmHg 37%
    19:00 +12°C° 0 mm 4 m/s 723 mmHg 40%
    20:00 +11°C° 0 mm 4 m/s 724 mmHg 44%
    21:00 +10°C° 0 mm 4 m/s 724 mmHg 47%
    22:00 +8°C° 0 mm 4 m/s 724 mmHg 51%
    23:00 +7°C° 0 mm 4 m/s 724 mmHg 54%
    Voir plus